K0PFX-8 Weather Reports


time (UTC)temp
F
wind
direction
speed
knots
gust
knots
rain 1hr
in
rain 24hr
in
rain mn
in
humidity
%
barometer
mb
20260906035736 87 63 1.7 0.0 0.00 0.00 0.00 55 1014.1
20260906034235 87 62 2.6 0.0 0.00 0.00 0.00 54 1013.9
20260906032735 87 14 0.0 0.0 0.00 0.00 0.00 53 1013.9
20260906031233 87 41 0.0 0.0 0.00 0.00 0.00 51 1013.6
20260906025735 88 336 0.0 0.0 0.00 0.00 0.00 50 1013.5
20260906024233 88 346 0.0 0.0 0.00 0.00 0.00 49 1013.5
20260906022734 88 359 0.0 0.0 0.00 0.00 0.00 49 1013.0
20260906021233 88 359 0.0 0.0 0.00 0.00 0.00 51 1012.8
20260906015734 88 359 0.0 0.0 0.00 0.00 0.00 51 1012.7
20260906014233 89 359 0.0 0.0 0.00 0.00 0.00 49 1012.5
20260906012734 89 359 0.0 0.0 0.00 0.00 0.00 48 1012.3
20260906011232 90 359 0.0 0.0 0.00 0.00 0.00 47 1012.2
20260906005734 90 359 0.0 0.0 0.00 0.00 0.00 45 1012.0
20260906004233 91 359 0.0 0.0 0.00 0.00 0.00 43 1012.0
20260906002734 91 359 0.0 0.0 0.00 0.00 0.00 42 1012.0
20260906001232 92 359 0.0 0.0 0.00 0.00 0.00 43 1012.0
20260905235734 93 359 0.0 0.0 0.00 0.00 0.00 41 1011.8
20260905234232 94 359 0.0 0.0 0.00 0.00 0.00 38 1011.8
20260905232733 94 4 0.0 0.0 0.00 0.00 0.00 35 1012.0
20260905231232 95 294 0.0 0.0 0.00 0.00 0.00 32 1012.0
20260905225733 95 311 0.0 0.0 0.00 0.00 0.00 31 1012.0
20260905224232 96 330 0.9 0.0 0.00 0.00 0.00 29 1011.9
20260905222733 96 100 0.9 0.0 0.00 0.00 0.00 28 1011.9
20260905221233 97 335 0.0 0.0 0.00 0.00 0.00 30 1012.0
20260905215733 97 311 4.3 4.3 0.00 0.00 0.00 26 1011.9
20260905214231 97 308 3.5 0.0 0.00 0.00 0.00 26 1012.0
20260905212732 98 312 1.7 0.0 0.00 0.00 0.00 27 1011.9
20260905211231 97 262 3.5 1.7 0.00 0.00 0.00 28 1012.1
20260905205732 96 359 0.9 0.0 0.00 0.00 0.00 29 1012.4
20260905204230 97 354 1.7 7.8 0.00 0.00 0.00 29 1012.5
20260905202732 97 17 5.2 2.6 0.00 0.00 0.00 27 1012.4
20260905201231 99 297 3.5 0.0 0.00 0.00 0.00 25 1012.4
20260905195732 99 136 3.5 0.0 0.00 0.00 0.00 24 1012.5
20260905194231 98 10 0.9 5.2 0.00 0.00 0.00 23 1012.8
20260905192732 97 269 3.5 2.6 0.00 0.00 0.00 26 1013.0
20260905191229 97 297 2.6 0.0 0.00 0.00 0.00 26 1013.2
20260905185730 97 359 0.9 0.0 0.00 0.00 0.00 25 1013.5
20260905184231 97 335 3.5 4.3 0.00 0.00 0.00 25 1013.6
20260905182730 96 267 1.7 2.6 0.00 0.00 0.00 31 1013.8
20260905181229 96 312 0.0 0.0 0.00 0.00 0.00 32 1014.0
20260905175730 95 259 4.3 0.0 0.00 0.00 0.00 33 1014.2
20260905174228 94 276 0.0 0.0 0.00 0.00 0.00 34 1014.3
20260905172730 94 288 4.3 1.7 0.00 0.00 0.00 35 1014.5
20260905171228 93 219 0.9 0.0 0.00 0.00 0.00 37 1014.7
20260905164226 92 243 6.1 7.0 0.00 0.00 0.00 37 1015.2
20260905162728 92 305 0.0 0.0 0.00 0.00 0.00 39 1015.4
20260905161226 91 280 1.7 3.5 0.00 0.00 0.00 40 1015.5
20260905155728 89 285 5.2 0.0 0.00 0.00 0.00 46 1015.5
20260905151226 87 231 7.0 2.6 0.00 0.00 0.00 51 1015.6
20260905144226 86 288 2.6 2.6 0.00 0.00 0.00 55 1015.5
20260905142728 85 245 4.3 0.0 0.00 0.00 0.00 57 1015.5
20260905141451 84 233 5.2 7.0 0.00 0.00 0.00 60 1015.5
20260905141342 84 233 5.2 7.0 0.00 0.00 0.00 60 1015.5
20260905141226 84 233 5.2 7.0 0.00 0.00 0.00 60 1015.5
20260905140038 83 231 2.6 2.6 0.00 0.00 0.00 63 1015.6
20260905135852 83 231 2.6 2.6 0.00 0.00 0.00 63 1015.6
20260905135728 83 231 2.6 2.6 0.00 0.00 0.00 63 1015.6
20260905134227 82 263 3.5 3.5 0.00 0.00 0.00 65 1015.4
20260905132728 82 242 5.2 4.3 0.00 0.00 0.00 67 1015.4
20260905131227 81 225 0.0 0.0 0.00 0.00 0.00 71 1015.3
20260905124226 79 239 0.0 0.0 0.00 0.00 0.00 80 1015.0
20260905122728 78 239 0.0 0.0 0.00 0.00 0.00 80 1014.9
20260905115727 78 239 0.0 0.0 0.00 0.00 0.00 83 1014.7
20260905111225 78 239 0.0 0.0 0.00 0.00 0.00 84 1014.3
20260905104225 78 239 0.0 0.0 0.00 0.00 0.00 83 1014.2
20260905102727 78 239 0.0 0.0 0.00 0.00 0.00 81 1014.3
20260905101524 78 239 0.0 0.0 0.00 0.00 0.00 81 1014.3
20260905101226 78 239 0.0 0.0 0.00 0.00 0.00 81 1014.3
20260905100144 79 239 0.0 0.0 0.00 0.00 0.00 79 1014.4
20260905094226 79 239 0.0 0.0 0.00 0.00 0.00 79 1014.4
20260905093234 79 239 0.0 0.0 0.00 0.00 0.00 78 1014.4
20260905092727 79 239 0.0 0.0 0.00 0.00 0.00 78 1014.4
20260905091226 79 239 0.0 0.0 0.00 0.00 0.00 76 1014.4
20260905085727 80 239 0.0 0.0 0.00 0.00 0.00 76 1014.4
20260905084226 80 239 0.0 0.0 0.00 0.00 0.00 75 1014.5
20260905082727 80 239 0.0 0.0 0.00 0.00 0.00 75 1014.5
20260905081225 80 239 0.0 0.0 0.00 0.00 0.00 75 1014.6
20260905075726 80 239 0.0 0.0 0.00 0.00 0.00 74 1014.7
20260905074225 80 239 0.0 0.0 0.00 0.00 0.00 73 1014.7
20260905072726 80 239 0.0 0.0 0.00 0.00 0.00 73 1014.7
20260905071225 80 239 0.0 0.0 0.00 0.00 0.00 72 1014.7
20260905065726 80 239 0.0 0.0 0.00 0.00 0.00 72 1014.6
20260905064225 80 239 0.0 0.0 0.00 0.00 0.00 72 1014.7
20260905062726 80 239 0.0 0.0 0.00 0.00 0.00 72 1014.8
20260905061225 81 239 0.0 0.0 0.00 0.00 0.00 71 1014.8
20260905055726 81 239 0.0 0.0 0.00 0.00 0.00 71 1014.9
20260905054224 81 239 0.0 0.0 0.00 0.00 0.00 71 1014.8
20260905052725 81 239 0.0 0.0 0.00 0.00 0.00 71 1014.8
20260905051225 81 239 0.0 0.0 0.00 0.00 0.00 70 1014.7
20260905045726 81 239 0.0 0.0 0.00 0.00 0.00 70 1014.6
20260905044224 81 239 0.0 0.0 0.00 0.00 0.00 69 1014.4
20260905042725 82 239 0.0 0.0 0.00 0.00 0.00 69 1014.3
20260905041224 82 239 0.0 0.0 0.00 0.00 0.00 68 1014.2